Satellite: NOAA-17
Catalog number: 27453
Epoch time:      11054.78958925
Element set:    0196
Inclination:      098.3948 deg
RA of node:       099.6288 deg
Eccentricity:    0.0012615
Arg of perigee:   119.1959 deg
Mean anomaly:     241.0471 deg
Mean motion:   14.24239757 rev/day
Decay rate:       2.26e-06 rev/day^2
Epoch rev:           45051
Checksum:              340

Satellite: NOAA-18
Catalog number: 28654
Epoch time:      11054.82134215
Element set:    0680
Inclination:      098.9839 deg
RA of node:       005.7689 deg
Eccentricity:    0.0015192
Arg of perigee:   065.1317 deg
Mean anomaly:     295.1427 deg
Mean motion:   14.11439647 rev/day
Decay rate:        7.6e-07 rev/day^2
Epoch rev:           29693
Checksum:              330

Satellite: NOAA-19
Catalog number: 33591
Epoch time:      11054.93528720
Element set:    0875
Inclination:      098.8169 deg
RA of node:       357.0540 deg
Eccentricity:    0.0013441
Arg of perigee:   299.4813 deg
Mean anomaly:     060.5006 deg
Mean motion:   14.11132658 rev/day
Decay rate:        6.0e-08 rev/day^2
Epoch rev:           10541
Checksum:              290

/EX
SB KEPS @ AMSAT  $ORB11055.M
Orbital Elements  11055.MISC

HR AMSAT ORBITAL ELEMENTS FOR MANNED AND MISCELLANEOUS SATELLITES
FROM WA5QGD FORT WORTH,TX February 24, 2011
Send Subscribe/unsubscribe to KEPS at http://www.amsat.org/mailman/listinfo/kep
BID: ORB11055.M
TO ALL RADIO AMATEURS BT

Satellite: HUBBLE
Catalog number: 20580
Epoch time:      11055.10470320
Element set:     717
Inclination:      028.4713 deg
RA of node:       035.0381 deg
Eccentricity:    0.0002994
Arg of perigee:   359.4486 deg
Mean anomaly:     000.6204 deg
Mean motion:   15.01175986 rev/day
Decay rate:       9.15e-06 rev/day^2
Epoch rev:           94264
Checksum:              271

Satellite: ISS
Catalog number: 25544
Epoch time:      11056.06484444
Element set:     896
Inclination:      051.6462 deg
RA of node:       015.9176 deg
Eccentricity:    0.0004433
Arg of perigee:   356.1322 deg
Mean anomaly:     100.6673 deg
Mean motion:   15.72757947 rev/day
Decay rate:     1.7128e-04 rev/day^2
Epoch rev:           70325
Checksum:              299

Satellite: CO-58
Catalog number: 28895
Epoch time:      11055.60605558
Element set:     808
Inclination:      097.9830 deg
RA of node:       296.2431 deg
Eccentricity:    0.0016942
Arg of perigee:   211.4125 deg
Mean anomaly:     148.6069 deg
Mean motion:   14.60014039 rev/day
Decay rate:       3.15e-06 rev/day^2
Epoch rev:           28381
Checksum:              312

Satellite: FALCON
Catalog number: 30776
Epoch time:      11055.88732147
Element set:      29
Inclination:      035.4350 deg
RA of node:       309.5735 deg
Eccentricity:    0.0001217
Arg of perigee:   255.8705 deg
Mean anomaly:     104.1869 deg
Mean motion:   15.04148204 rev/day
Decay rate:      1.453e-05 rev/day^2
Epoch rev:           21812
Checksum:              274

Satellite: MAST
Catalog number: 31126
Epoch time:      11055.63639133
Element set:      92
Inclination:      097.9069 deg
RA of node:       089.1631 deg
Eccentricity:    0.0094645
Arg of perigee:   160.4862 deg
Mean anomaly:     199.9970 deg
Mean motion:   14.53677189 rev/day
Decay rate:        8.6e-07 rev/day^2
Epoch rev:           20473
Checksum:              328

Satellite: CAPE1
Catalog number: 31130
Epoch time:      11055.65455022
Element set:     112
Inclination:      097.9117 deg
RA of node:       086.1218 deg
Eccentricity:    0.0103080
Arg of perigee:   170.1423 deg
Mean anomaly:     190.1769 deg
Mean motion:   14.52295048 rev/day
Decay rate:       1.46e-06 rev/day^2
Epoch rev:           20430
Checksum:              246

Satellite: COMPASS
Catalog number: 32787
Epoch time:      11054.66964655
Element set:    0919
Inclination:      097.8598 deg
RA of node:       120.5526 deg
Eccentricity:    0.0015503
Arg of perigee:   182.9124 deg
Mean anomaly:     177.2042 deg
Mean motion:   14.82155050 rev/day
Decay rate:       6.91e-06 rev/day^2
Epoch rev:           15274
Checksum:              310

Satellite: AAUSAT2
Catalog number: 32788
Epoch time:      11054.64686416
Element set:    0907
Inclination:      097.8599 deg
RA of node:       120.7180 deg
Eccentricity:    0.0015016
Arg of perigee:   184.0444 deg
Mean anomaly:     176.0636 deg
Mean motion:   14.82319863 rev/day
Decay rate:       6.50e-06 rev/day^2
Epoch rev:           15275
Checksum:              316

Satellite: DO-64
Catalog number: 32789
Epoch time:      11055.76624639
Element set:     924
Inclination:      097.8685 deg
RA of node:       122.6279 deg
Eccentricity:    0.0015600
Arg of perigee:   178.2542 deg
Mean anomaly:     181.8687 deg
Mean motion:   14.82624039 rev/day
Decay rate:      1.306e-05 rev/day^2
Epoch rev:           15292
Checksum:              338

Satellite: CO-66
Catalog number: 32791
Epoch time:      11055.67713868
Element set:     908
Inclination:      097.8597 deg
RA of node:       121.5138 deg
Eccentricity:    0.0015924
Arg of perigee:   178.8254 deg
Mean anomaly:     181.3006 deg
Mean motion:   14.81894744 rev/day
Decay rate:       5.48e-06 rev/day^2
Epoch rev:           15284
Checksum:              347

